When you browse on this site, cookies collect data to enhance your experience and personalize the content and advertising you see.
Visit our Privacy Policy to learn more. By continuing to use the site, you agree to this use of cookies and data.
  • Em Portugal
  • Lista de países
  • Para 7 dias
  • Temperatura da água
  • Mapas de satélite
  • Mapa do tempo
  • Widgets de tempo
  • user-avatar
    Iniciar Sessão

    Previsão horária em Demidova

    Hoje, 18 Fevereiro, Segunda-feira

    Tempo Temperatura Precipitação Vento Pressão Humidade
    00:00 -7°C° 0.3 mm 4 m/s 730 mmHg 93%
    01:00 -7°C° 0.3 mm 4 m/s 729 mmHg 93%
    02:00 -7°C° 0.2 mm 4 m/s 729 mmHg 94%
    03:00 -7°C° 0.2 mm 4 m/s 729 mmHg 94%
    04:00 -6°C° 0 mm 3 m/s 729 mmHg 95%
    05:00 -6°C° 0.2 mm 3 m/s 729 mmHg 95%
    06:00 -5°C° 0.2 mm 2 m/s 728 mmHg 96%
    07:00 -5°C° 0.2 mm 2 m/s 728 mmHg 96%
    08:00 -5°C° 0.2 mm 2 m/s 729 mmHg 96%
    09:00 -3°C° 0.2 mm 1 m/s 729 mmHg 96%
    10:00 -2°C° 0.2 mm 1 m/s 729 mmHg 96%
    11:00 -2°C° 0.1 mm 1 m/s 729 mmHg 94%
    12:00 -1°C° 0.1 mm 1 m/s 730 mmHg 93%
    13:00 -1°C° 0.1 mm 1 m/s 730 mmHg 91%
    14:00 -3°C° 0.2 mm 2 m/s 730 mmHg 91%
    15:00 -3°C° 0.2 mm 2 m/s 731 mmHg 91%
    16:00 -2°C° 0.2 mm 3 m/s 731 mmHg 91%
    17:00 -4°C° 0.1 mm 3 m/s 732 mmHg 92%
    18:00 -4°C° 0.1 mm 3 m/s 733 mmHg 92%
    19:00 -5°C° 0.1 mm 3 m/s 734 mmHg 93%
    20:00 -6°C° 0.2 mm 5 m/s 734 mmHg 90%
    21:00 -8°C° 0.2 mm 7 m/s 735 mmHg 87%
    22:00 -10°C° 0.2 mm 8 m/s 736 mmHg 84%
    23:00 -11°C° 0 mm 8 m/s 737 mmHg 83%

    Amanhã, 19 Fevereiro, Terça-feira

    Tempo Temperatura Precipitação Vento Pressão Humidade
    00:00 -12°C° 0 mm 8 m/s 738 mmHg 83%
    01:00 -13°C° 0 mm 8 m/s 739 mmHg 83%
    02:00 -15°C° 0 mm 8 m/s 740 mmHg 82%
    03:00 -16°C° 0 mm 8 m/s 741 mmHg 82%
    04:00 -18°C° 0 mm 7 m/s 742 mmHg 82%
    05:00 -19°C° 0 mm 7 m/s 742 mmHg 82%
    06:00 -20°C° 0 mm 7 m/s 743 mmHg 83%
    07:00 -21°C° 0 mm 7 m/s 744 mmHg 83%
    08:00 -21°C° 0 mm 7 m/s 745 mmHg 83%
    09:00 -21°C° 0 mm 6 m/s 746 mmHg 83%
    10:00 -21°C° 0 mm 6 m/s 746 mmHg 83%
    11:00 -20°C° 0 mm 6 m/s 747 mmHg 81%
    12:00 -20°C° 0 mm 6 m/s 747 mmHg 79%
    13:00 -18°C° 0 mm 6 m/s 747 mmHg 77%
    14:00 -18°C° 0 mm 5 m/s 748 mmHg 78%
    15:00 -17°C° 0 mm 5 m/s 748 mmHg 79%
    16:00 -16°C° 0 mm 4 m/s 749 mmHg 79%
    17:00 -17°C° 0 mm 3 m/s 749 mmHg 83%
    18:00 -18°C° 0 mm 3 m/s 749 mmHg 86%
    19:00 -18°C° 0 mm 2 m/s 750 mmHg 89%
    20:00 -18°C° 0 mm 2 m/s 750 mmHg 89%
    21:00 -16°C° 0 mm 1 m/s 750 mmHg 89%
    22:00 -16°C° 0 mm 1 m/s 750 mmHg 89%
    23:00 -17°C° 0 mm 1 m/s 750 mmHg 89%

    Depois de amanhã, 20 Fevereiro, Quarta-feira

    Tempo Temperatura Precipitação Vento Pressão Humidade
    00:00 -17°C° 0 mm 1 m/s 750 mmHg 88%
    01:00 -17°C° 0 mm 1 m/s 750 mmHg 88%
    02:00 -17°C° 0 mm 1 m/s 750 mmHg 88%
    03:00 -19°C° 0 mm 2 m/s 750 mmHg 89%
    04:00 -19°C° 0 mm 2 m/s 750 mmHg 90%
    05:00 -19°C° 0 mm 2 m/s 750 mmHg 91%
    06:00 -19°C° 0 mm 2 m/s 750 mmHg 93%
    07:00 -19°C° 0 mm 2 m/s 749 mmHg 94%
    08:00 -19°C° 0 mm 3 m/s 749 mmHg 94%
    09:00 -18°C° 0 mm 3 m/s 749 mmHg 95%
    10:00 -17°C° 0 mm 3 m/s 749 mmHg 95%
    11:00 -15°C° 0 mm 3 m/s 749 mmHg 94%
    12:00 -14°C° 0 mm 4 m/s 749 mmHg 94%
    13:00 -12°C° 0 mm 4 m/s 749 mmHg 94%
    14:00 -11°C° 0 mm 4 m/s 748 mmHg 94%
    15:00 -12°C° 0 mm 5 m/s 748 mmHg 94%
    16:00 -11°C° 0 mm 5 m/s 748 mmHg 93%
    17:00 -11°C° 0.1 mm 5 m/s 747 mmHg 93%
    18:00 -10°C° 0.1 mm 5 m/s 747 mmHg 92%
    19:00 -10°C° 0.1 mm 6 m/s 747 mmHg 91%
    20:00 -10°C° 0.1 mm 6 m/s 746 mmHg 91%
    21:00 -11°C° 0.1 mm 6 m/s 746 mmHg 91%
    22:00 -11°C° 0.1 mm 6 m/s 745 mmHg 91%
    23:00 -11°C° 0.1 mm 6 m/s 745 mmHg 91%

    21 Fevereiro, Quinta-feira

    Tempo Temperatura Precipitação Vento Pressão Humidade
    00:00 -10°C° 0.1 mm 6 m/s 744 mmHg 91%
    01:00 -10°C° 0.1 mm 5 m/s 744 mmHg 92%
    02:00 -9°C° 0.1 mm 6 m/s 744 mmHg 92%
    03:00 -8°C° 0.1 mm 6 m/s 744 mmHg 91%
    04:00 -8°C° 0.1 mm 6 m/s 743 mmHg 91%
    05:00 -6°C° 0.2 mm 6 m/s 743 mmHg 91%
    06:00 -6°C° 0.2 mm 6 m/s 743 mmHg 91%
    07:00 -6°C° 0.2 mm 6 m/s 743 mmHg 91%
    08:00 -6°C° 0.1 mm 6 m/s 743 mmHg 91%
    09:00 -6°C° 0.1 mm 6 m/s 743 mmHg 91%
    10:00 -6°C° 0.1 mm 6 m/s 743 mmHg 90%
    11:00 -5°C° 0.1 mm 6 m/s 743 mmHg 90%
    12:00 -5°C° 0.1 mm 6 m/s 743 mmHg 91%
    13:00 -5°C° 0.1 mm 6 m/s 743 mmHg 91%
    14:00 -5°C° 0.1 mm 5 m/s 743 mmHg 91%
    15:00 -5°C° 0.1 mm 5 m/s 743 mmHg 91%
    16:00 -5°C° 0.1 mm 5 m/s 743 mmHg 91%
    17:00 -5°C° 0.2 mm 5 m/s 743 mmHg 92%
    18:00 -6°C° 0.2 mm 5 m/s 743 mmHg 92%
    19:00 -6°C° 0.2 mm 5 m/s 743 mmHg 93%
    20:00 -6°C° 0.3 mm 5 m/s 743 mmHg 93%
    21:00 -6°C° 0.3 mm 5 m/s 743 mmHg 93%
    22:00 -7°C° 0.3 mm 5 m/s 743 mmHg 93%
    23:00 -6°C° 0.2 mm 5 m/s 743 mmHg 93%

    22 Fevereiro, Sexta-feira

    Tempo Temperatura Precipitação Vento Pressão Humidade
    00:00 -5°C° 0.2 mm 4 m/s 743 mmHg 93%
    01:00 -5°C° 0.2 mm 4 m/s 743 mmHg 92%
    02:00 -5°C° 0.2 mm 4 m/s 742 mmHg 93%
    03:00 -5°C° 0.2 mm 4 m/s 742 mmHg 94%
    04:00 -5°C° 0.2 mm 3 m/s 742 mmHg 94%
    05:00 -5°C° 0.4 mm 3 m/s 741 mmHg 95%
    06:00 -3°C° 0.4 mm 2 m/s 741 mmHg 96%
    07:00 -3°C° 0.4 mm 2 m/s 741 mmHg 97%
    08:00 -4°C° 0.5 mm 3 m/s 741 mmHg 95%
    09:00 -2°C° 0.5 mm 3 m/s 740 mmHg 94%
    10:00 -2°C° 0.5 mm 4 m/s 740 mmHg 92%
    11:00 -2°C° 0.4 mm 4 m/s 740 mmHg 94%
    12:00 -1°C° 0.4 mm 3 m/s 740 mmHg 96%
    13:00 -1°C° 0.4 mm 3 m/s 740 mmHg 98%
    14:00 -1°C° 0.8 mm 3 m/s 740 mmHg 96%
    15:00 -1°C° 0.8 mm 3 m/s 740 mmHg 94%
    16:00 -1°C° 0.8 mm 3 m/s 740 mmHg 93%
    17:00 -2°C° 0.1 mm 3 m/s 740 mmHg 93%
    18:00 -4°C° 0.1 mm 3 m/s 740 mmHg 93%
    19:00 -4°C° 0.1 mm 2 m/s 741 mmHg 93%
    20:00 -5°C° 0 mm 2 m/s 741 mmHg 93%
    21:00 -5°C° 0 mm 2 m/s 742 mmHg 93%
    22:00 -6°C° 0 mm 2 m/s 742 mmHg 93%
    23:00 -8°C° 0.1 mm 3 m/s 743 mmHg 94%

    23 Fevereiro, Sábado

    Tempo Temperatura Precipitação Vento Pressão Humidade
    00:00 -9°C° 0.1 mm 4 m/s 743 mmHg 94%
    01:00 -10°C° 0.1 mm 4 m/s 744 mmHg 94%
    02:00 -12°C° 0.1 mm 5 m/s 745 mmHg 93%
    03:00 -13°C° 0.1 mm 5 m/s 746 mmHg 92%
    04:00 -14°C° 0.1 mm 5 m/s 746 mmHg 91%
    05:00 -15°C° 0 mm 5 m/s 747 mmHg 92%
    06:00 -15°C° 0 mm 4 m/s 748 mmHg 92%
    07:00 -16°C° 0 mm 4 m/s 749 mmHg 92%
    08:00 -16°C° 0 mm 4 m/s 750 mmHg 91%
    09:00 -15°C° 0 mm 3 m/s 750 mmHg 91%
    10:00 -15°C° 0 mm 3 m/s 751 mmHg 91%
    11:00 -15°C° 0 mm 3 m/s 752 mmHg 90%
    12:00 -14°C° 0 mm 3 m/s 752 mmHg 90%
    13:00 -14°C° 0 mm 3 m/s 753 mmHg 89%
    14:00 -13°C° 0 mm 2 m/s 753 mmHg 89%
    15:00 -13°C° 0 mm 2 m/s 753 mmHg 89%
    16:00 -13°C° 0 mm 2 m/s 754 mmHg 89%
    17:00 -14°C° 0 mm 2 m/s 754 mmHg 91%
    18:00 -15°C° 0 mm 2 m/s 755 mmHg 93%
    19:00 -15°C° 0 mm 2 m/s 755 mmHg 95%
    20:00 -14°C° 0 mm 1 m/s 755 mmHg 95%
    21:00 -14°C° 0 mm 1 m/s 756 mmHg 96%
    22:00 -15°C° 0 mm 1 m/s 756 mmHg 96%
    23:00 -16°C° 0 mm 1 m/s 756 mmHg 96%
    Mostrar mais